This demonstration page uses our WeatherBlox Daily Observations layout. Learn more.

Left ArrowRight Arrow

Hourly Observations for November 13, 2018

Temp ( °F °C ) Dew Point ( °F °C ) Humidity (%) Winds ( mph kmh ) Pressure ( in mb ) Visibility ( mi km ) Precip ( " mm )
12:52 am 00:52 Clear 14 -10 9 -12.8 80 80 N 3 6 30.61 1037 10 16 0.00 0.00
1:52 am 01:52 Clear 15 -9.4 10 -12.2 80 80 Calm 30.59 1036 10 16 0.00 0.00
2:52 am 02:52 Clear 15 -9.4 9 -12.8 77 77 Calm 30.60 1036 10 16 0.00 0.00
3:52 am 03:52 Clear 14 -10 8 -13.3 77 77 Calm 30.59 1036 10 16 0.00 0.00
4:52 am 04:52 Clear 13 -10.6 8 -13.3 81 81 W 3 6 30.59 1036 10 16 0.00 0.00
5:52 am 05:52 Clear 14 -10 8 -13.3 77 77 WNW 5 7 30.60 1036 10 16 0.00 0.00
6:52 am 06:52 Clear 12 -11.1 6 -14.4 77 77 WNW 5 7 30.61 1037 10 16 0.00 0.00
7:52 am 07:52 Sunny 16 -8.9 9 -12.8 74 74 Calm 30.61 1037 10 16 0.00 0.00
8:52 am 08:52 Sunny 18 -7.8 12 -11.1 77 77 Calm 30.62 1037 10 16 0.00 0.00
9:52 am 09:52 Sunny 22 -5.6 13 -10.6 68 68 SSE 5 7 30.62 1037 10 16 0.00 0.00
10:52 am 10:52 Sunny 27 -2.8 12 -11.1 53 53 SSE 7 11 30.60 1036 10 16 0.00 0.00
11:52 am 11:52 Sunny 30 -1.1 13 -10.6 49 49 S 9 15 30.58 1036 10 16 0.00 0.00
12:52 pm 12:52 Sunny 33 0.6 13 -10.6 43 43 S 8 13 30.55 1034 10 16 0.00 0.00
1:52 pm 13:52 Sunny 35 1.7 13 -10.6 40 40 SSW 7 11 30.53 1034 10 16 0.00 0.00
2:52 pm 14:52 Sunny 37 2.8 14 -10 39 39 WSW 7 11 30.51 1033 10 16 0.00 0.00
3:52 pm 15:52 Sunny 37 2.8 14 -10 39 39 SSW 6 9 30.50 1033 10 16 0.00 0.00
4:52 pm 16:52 Sunny 36 2.2 15 -9.4 42 42 S 5 7 30.50 1033 10 16 0.00 0.00
5:52 pm 17:52 Clear 30 -1.1 15 -9.4 54 54 SSE 8 13 30.50 1033 10 16 0.00 0.00
6:52 pm 18:52 Clear 27 -2.8 16 -8.9 63 63 SSE 8 13 30.50 1033 10 16 0.00 0.00
7:52 pm 19:52 Clear 27 -2.8 17 -8.3 66 66 SSE 7 11 30.49 1033 10 16 0.00 0.00
8:52 pm 20:52 Clear 26 -3.3 17 -8.3 69 69 SSE 8 13 30.50 1033 10 16 0.00 0.00
9:52 pm 21:52 Clear 27 -2.8 17 -8.3 66 66 SSE 9 15 30.50 1033 10 16 0.00 0.00
10:52 pm 22:52 Clear 25 -3.9 17 -8.3 72 72 SSE 12 19 30.49 1033 10 16 0.00 0.00
11:52 pm 23:52 Clear 24 -4.4 18 -7.8 77 77 SSE 8 13 30.49 1033 10 16 0.00 0.00

Powered by AerisWeather